Miscellaneous Local Product
Issued by NWS Hastings, NE

Home | Current Version | Previous Version | Text Only | Print | Product List | Glossary On
Versions: 1 2 3 4 5 6 7 8 9 10 11 12 13 14 15 16 17 18 19 20 21 22 23 24 25 26 27 28 29 30 31 32 33 34 35 36 37 38 39 40 41 42 43 44 45 46 47 48 49 50
000
AXUS43 KGID 290702
MISGRI

GID CWA HOURLY WEATHER ROUNDUP
NATIONAL WEATHER SERVICE HASTINGS NE
200 AM CDT SAT AUG 29 2015

NOTE: "FAIR" INDICATES FEW OR NO CLOUDS BELOW 12,000 FEET WITH NO
SIGNIFICANT WEATHER AND/OR OBSTRUCTIONS TO VISIBILITY.

...SOUTH CENTRAL NEBRASKA...

CITY           SKY/WX    TMP DP  RH WIND       PRES   REMARKS
GRAND ISLAND   CLEAR     61  60  97 N8        30.05S
HASTINGS       CLEAR     61  59  93 N5        30.04S
KEARNEY        CLEAR     59  54  82 NW7       30.06F
ORD            CLEAR     57  56  96 CALM      30.05F
YORK           MOCLDY    59  57  94 CALM      30.03S
AURORA         MOCLDY    61  61 100 N7        30.03S
LEXINGTON      CLEAR     58  57  96 NW6       30.10R
HOLDREGE       CLEAR     59  56  92 NW3       30.07F
HEBRON         MOCLDY    64  60  87 N6        30.02R

...NEBRASKA PANHANDLE...

CITY           SKY/WX    TMP DP  RH WIND       PRES   REMARKS
CHADRON        CLEAR     56  49  77 CALM      30.11R
ALLIANCE       CLEAR     55  48  77 CALM      30.16R
SCOTTSBLUFF    CLEAR     61  50  67 CALM      30.17S
SIDNEY         CLEAR     53  42  66 SW8       30.20F

...WESTERN AND NORTH CENTRAL NEBRASKA...

CITY           SKY/WX    TMP DP  RH WIND       PRES   REMARKS
VALENTINE      CLEAR     59  58  96 CALM      30.07F
AINSWORTH      CLEAR     58  57  97 CALM      30.08F
ONEILL         FOG       59  58  99 CALM      30.06F VSB<1/4
BROKEN BOW     CLEAR     59  57  93 CALM      30.08F
IMPERIAL       CLEAR     61  57  87 W3        30.16R
NORTH PLATTE   CLEAR     55  53  93 CALM      30.13R
MCCOOK         CLEAR     62  59  90 CALM      30.12R

...EASTERN NEBRASKA...

CITY           SKY/WX    TMP DP  RH WIND       PRES   REMARKS
NORFOLK        CLOUDY    60  58  92 N9        30.03S
SO SIOUX CITY  CLOUDY    62  57  83 N7        30.01S
TEKAMAH        CLOUDY    62  60  93 N8        29.99S
COLUMBUS       CLOUDY   N/A N/A N/A N3        30.02S
ALBION         CLEAR     57  55  93 CALM      30.04F
OMAHA EPPLEY   CLOUDY    63  62  97 N10       29.97S
OFFUTT AFB     CLOUDY    63  62  94 N8        29.96S FOG
MILLARD        CLOUDY    64  62  94 N3        29.98S
LINCOLN        CLOUDY    64  60  87 N14       30.00R
NEBRASKA CITY  CLOUDY    63  63  99 N7        29.96F FOG
BEATRICE       CLOUDY    64  60  90 N6        29.99S
FALLS CITY     CLOUDY    67  65  93 NW10      29.93F

...NORTHERN KANSAS...

CITY           SKY/WX    TMP DP  RH WIND       PRES   REMARKS
GOODLAND       CLEAR     62  57  83 S5        30.18S
HILL CITY      CLEAR     60  58  92 NW5       30.09S
NORTON         SUNNY     57  54  88 W7        30.09S
PHILLIPSBURG   CLEAR     63  63 100 CALM      30.07S
SMITH CENTER   CLEAR     57  57 100 NW6       30.06R
HAYS           CLEAR     63  54  72 NW5       30.07S
RUSSELL        CLEAR     63  62  97 NW3       30.04S
CONCORDIA      CLEAR     64  62  93 NW6       30.02R
SALINA         CLEAR     67  63  87 W6        30.01S
TOPEKA         MOCLDY    70  68  93 W6        29.95S



USA.gov is the U.S. government's official web portal to all federal, state and local government web resources and services.